Regional Weather Roundup
Issued by NWS Little Rock, AR

Home | Current Version | Previous Version | Text Only | Print | Product List | Glossary Off
Versions: 1 2 3 4 5 6 7 8 9 10 11 12 13 14 15 16 17 18 19 20 21 22 23 24 25 26 27 28 29 30 31 32 33 34 35 36 37 38 39 40 41 42 43 44 45 46 47 48 49 50

000
ASUS44 KLZK 312205
RWRLZK

WEATHER ROUNDUP FOR ARKANSAS
NATIONAL WEATHER SERVICE LITTLE ROCK AR
400 PM CST SAT JAN 31 2015

NOTE: "FAIR" INDICATES FEW OR NO CLOUDS BELOW 12,000 FEET WITH NO
SIGNIFICANT WEATHER AND/OR OBSTRUCTIONS TO VISIBILITY.

ARZ001-003-010-029-312300-
NORTHWEST ARKANSAS

CITY           SKY/WX    TMP DP  RH WIND       PRES   REMARKS
FAYETTEVILLE   CLOUDY    46  26  45 S7        30.07F
FORT SMITH     CLOUDY    52  28  39 E8        30.09F
HARRISON       CLOUDY    45  24  43 SE13      30.09F
BENTONVILLE    CLOUDY    48  25  40 S8        30.07F
ROGERS         CLOUDY    47  24  40 SE9       30.06F
SILOAM SPGS    CLOUDY   N/A N/A N/A S8        30.07F
HIGHFILL       CLOUDY    47  26  44 S10       30.06F
SPRINGDALE     CLOUDY    48  25  40 SE8       30.08F
$$

ARZ004-005-016-312300-
NORTH CENTRAL ARKANSAS

CITY           SKY/WX    TMP DP  RH WIND       PRES   REMARKS
BATESVILLE     CLOUDY    45  27  49 E10       30.19F
FLIPPIN        CLOUDY    46  21  36 SE7       30.13F
MTN HOME       CLOUDY    46  20  35 SE9       30.13F
$$

ARZ040-041-312300-
WEST CENTRAL ARKANSAS

CITY           SKY/WX    TMP DP  RH WIND       PRES   REMARKS
MENA           CLOUDY    52  32  46 SE3       30.08F
MOUNT IDA      CLOUDY    49  27  42 S6        30.11F
$$

ARZ009-017-025-026-028-312300-
NORTHEAST ARKANSAS

CITY           SKY/WX    TMP DP  RH WIND       PRES   REMARKS
CORNING        FAIR      45  28  53 E7        30.23F
JONESBORO      CLOUDY    43  29  57 E7        30.22F
NEWPORT        CLOUDY    45  31  58 E7        30.22F
WALNUT RIDGE   CLOUDY    45  27  49 SE7       30.20F
BLYTHEVILLE    CLOUDY    46  26  45 E7        30.24F
$$

ARZ022-023-033-042-044-312300-
CENTRAL ARKANSAS

CITY           SKY/WX    TMP DP  RH WIND       PRES   REMARKS
LITTLE ROCK    CLOUDY    47  27  45 E8        30.18F
N LITTLE ROCK  CLOUDY    45  31  59 E8        30.18F
JACKSONVILLE   CLOUDY    46  28  50 E8        30.17F
SEARCY         CLOUDY    46  28  49 E5        30.21F
HOT SPRINGS    CLOUDY    48  27  44 E9        30.14F
RUSSELLVILLE   CLOUDY    48  28  46 E7        30.14F
CLINTON        FAIR      45  28  53 E6        30.17F
$$

ARZ036-312300-
EAST ARKANSAS

CITY           SKY/WX    TMP DP  RH WIND       PRES   REMARKS
WEST MEMPHIS   CLOUDY    45  26  47 E5        30.21F
$$

ARZ050-053-066-070-073-312300-
SOUTHWEST ARKANSAS

CITY           SKY/WX    TMP DP  RH WIND       PRES   REMARKS
ARKADELPHIA    FAIR      51  33  50 E7        30.16F
CAMDEN         CLOUDY    55  28  35 MISG      30.15F
TEXARKANA      CLOUDY    52  32  46 SE6       30.10F
EL DORADO      CLOUDY    54  31  41 SE5       30.15F
DE QUEEN       CLOUDY    52  31  44 E12       30.08F
$$

ARZ056-057-069-312300-
SOUTHEAST ARKANSAS

CITY           SKY/WX    TMP DP  RH WIND       PRES   REMARKS
PINE BLUFF     CLOUDY    47  30  51 E8        30.18F
STUTTGART      CLOUDY    46  27  46 NE6       30.20F
MONTICELLO     PTSUNNY   54  29  38 E7        30.16F

$$




USA.gov is the U.S. government's official web portal to all federal, state and local government web resources and services.